LEMD Weather Reports


time (UTC)temp
C
wind
direction
speed
KPH
gust
KPH
rain 1hr
cm
rain 24hr
cm
rain mn
cm
humidity
%
barometer
mb
20260503203004 17 250 14.5 0.0 0.00 0.00 0.00 55 1012.0
20260503194504 17 260 14.5 0.0 0.00 0.00 0.00 52 1011.0
20260503193005 17 250 19.3 0.0 0.00 0.00 0.00 48 1011.0
20260503190004 18 240 24.1 0.0 0.00 0.00 0.00 48 1011.0
20260503184504 18 240 24.1 0.0 0.00 0.00 0.00 48 1011.0
20260503183004 20 250 22.5 0.0 0.00 0.00 0.00 45 1011.0
20260503180004 20 250 22.5 0.0 0.00 0.00 0.00 45 1011.0
20260503174503 20 250 22.5 0.0 0.00 0.00 0.00 45 1011.0
20260503173004 20 230 24.1 0.0 0.00 0.00 0.00 45 1011.0
20260503171504 20 230 24.1 0.0 0.00 0.00 0.00 45 1011.0
20260503081504 12 0 3.2 0.0 0.00 0.00 0.00 100 1014.0
20260503054503 12 340 8.0 0.0 0.00 0.00 0.00 100 1014.0
20260503053004 11 360 1.6 0.0 0.00 0.00 0.00 100 1014.0
20260503044504 12 360 1.6 0.0 0.00 0.00 0.00 100 1014.0
20260503043004 12 0 3.2 0.0 0.00 0.00 5.08 100 1014.0
20260503041503 12 0 3.2 0.0 0.00 0.00 5.08 100 1014.0
20260503040005 12 330 1.6 0.0 0.00 0.00 0.00 100 1014.0
20260503033004 12 350 1.6 0.0 0.00 0.00 0.00 100 1014.0
20260503024504 12 0 1.6 0.0 0.00 0.00 0.00 100 1015.0
20260503021504 12 80 1.6 0.0 0.00 0.00 0.00 100 1015.0
20260503020005 12 0 3.2 0.0 0.00 0.00 0.00 100 1015.0
20260503014504 12 0 3.2 0.0 0.00 0.00 0.00 100 1015.0
20260503010004 12 0 3.2 0.0 0.00 0.00 0.00 100 1015.0
20260503004504 12 0 3.2 0.0 0.00 0.00 0.00 100 1015.0
20260503003004 12 0 1.6 0.0 0.00 0.00 0.00 100 1016.0
20260502234504 13 70 1.6 0.0 0.00 0.00 0.00 100 1015.0
20260502231504 12 0 3.2 0.0 0.00 0.00 0.00 100 1015.0
20260502230005 15 160 4.8 0.0 0.00 0.00 0.00 87 1016.0
20260502224504 15 160 4.8 0.0 0.00 0.00 0.00 87 1016.0
20260502223004 13 0 3.2 0.0 0.00 0.00 0.00 82 1016.0
20260502221504 13 0 3.2 0.0 0.00 0.00 0.00 82 1016.0
20260502220006 13 0 1.6 0.0 0.00 0.00 0.00 82 1016.0
20260502214504 13 0 1.6 0.0 0.00 0.00 0.00 82 1016.0
20260502210004 17 210 9.7 0.0 0.00 0.00 0.00 67 1015.0
20260502204505 17 210 9.7 0.0 0.00 0.00 0.00 67 1015.0